Location: ??????
(38.1303°N, 24.0039°E)
Time: 11:46:40
(UTC+00:00)

NOSS 2-2 (E) - Pass Details

Date: 20 June 2021
Orbit: 448 x 1757 km, 63.3° (Epoch: 02 August)

Event Time Altitude Azimuth Distance (km) Brightness Sun altitude
Exits shadow 00:20:31 36° 322° (NW) 730 4.1 -22.8°
Drops below altitude 10° 00:23:32 10° 18° (NNE) 1,659 6.8 -22.5°
Sets 00:25:55 0° 27° (NNE) 2,642 8.3 -22.3°
